Location: *
(52.2090°N, 4.1550°W)
Time: 09:24:05
(UTC+00:00)

Cosmos 2219 Rocket - Pass Details

Date: 19 July 2019
Orbit: 829 x 845 km, 71.0° (Epoch: 25 August)

Event Time Altitude Azimuth Distance (km) Brightness Sun altitude
Exits shadow 21:16:15 - 146° (SE) 2,683 4.1 -6.5°
Reaches altitude 10° 21:17:06 10° 139° (SE) 2,464 3.9 -6.6°
Maximum altitude 21:20:44 18° 99° (E) 1,973 3.7 -6.9°
Drops below altitude 10° 21:24:23 10° 59° (ENE) 2,472 4.5 -7.3°
Sets 21:27:35 0° 41° (NE) 3,409 5.5 -7.6°
